EHI
27 23 19 19 23 29 32 33 32 31 32 28 20 14 10 6 4 2 1 1 1 2 3 4 4 3 2 1 0 0 0 0 0 0 0 0 0 0 0 0 0 0 0
31 28 25 25 29 34 35 35 34 32 31 30 23 16 10 7 6 4 2 2 3 3 3 3 3 4 3 1 0 0 0 0 0 0 1 1 0 0 0 0 0 0 1
35 34 35 36 36 38 38 36 36 34 31 28 24 18 14 11 8 6 4 3 4 5 5 3 2 2 2 2 0 0 1 1 0 1 2 2 2 2 1 0 0 0 1
35 37 41 42 40 37 35 36 38 36 32 26 21 19 17 13 9 5 4 3 4 5 6 4 2 2 2 1 1 1 2 2 1 2 3 3 4 3 1 0 0 1 1
34 36 38 40 38 32 30 34 38 37 32 27 22 20 19 15 9 5 4 5 4 4 5 6 6 5 4 3 2 3 3 3 3 4 4 4 4 3 2 0 0 1 1
35 35 36 37 34 30 27 30 33 34 32 29 25 23 22 18 13 9 7 6 5 4 5 6 9 9 6 4 3 3 4 4 4 5 5 5 4 3 1 0 1 1 1
36 38 39 39 36 33 29 29 32 33 32 32 30 26 23 20 17 12 9 7 6 5 6 7 9 10 8 5 3 3 3 4 4 5 6 6 5 4 2 1 2 1 1
36 39 40 39 39 37 34 34 36 36 34 33 31 26 23 20 18 14 10 8 7 7 7 8 9 9 8 5 4 3 3 3 4 5 6 7 5 4 4 3 3 2 1
35 38 38 37 37 37 37 38 39 39 37 34 28 24 23 22 20 17 13 10 11 10 8 8 9 9 7 6 5 4 3 4 4 5 6 7 5 4 4 5 5 5 3
37 39 38 36 36 37 39 38 39 40 38 33 27 24 24 25 23 20 16 13 12 11 9 8 8 7 7 6 6 4 3 3 4 4 5 6 5 3 4 6 8 7 6
40 41 40 38 38 38 39 39 39 38 36 33 30 27 26 25 24 21 17 15 13 11 9 8 7 7 7 7 7 5 4 4 4 4 5 6 6 5 5 6 8 8 7
46 45 43 41 39 38 39 42 41 38 35 35 35 32 28 25 23 21 18 15 14 13 11 9 8 9 9 10 9 7 5 5 5 5 6 6 7 7 6 4 4 5 5
52 50 45 41 37 36 38 42 41 37 35 36 37 35 30 27 25 22 18 17 16 15 12 9 9 10 10 10 8 7 7 7 6 6 5 6 7 6 4 2 1 1 1
55 51 46 40 38 38 39 40 40 37 35 36 38 36 32 29 26 23 20 18 17 15 12 8 7 7 7 6 6 6 7 7 6 5 3 3 4 4 3 1 0 0 0
55 52 47 44 45 45 42 40 40 40 39 39 38 35 31 28 25 24 22 19 17 15 12 9 8 7 5 3 3 4 5 5 5 3 2 1 1 1 1 0 0 0 0
58 56 51 49 51 49 44 42 43 44 44 42 38 33 29 25 22 23 22 19 17 16 13 11 10 9 6 2 1 2 2 3 3 1 1 0 0 0 0 0 0 0 0
61 60 54 52 53 51 45 44 45 46 46 42 34 28 25 22 21 21 20 18 16 14 13 11 10 8 5 1 0 0 1 1 1 0 0 0 0 0 0 0 0 0 0
63 60 55 53 54 52 47 44 43 45 44 38 31 24 21 20 20 20 19 16 14 13 11 10 8 6 3 0 0 0 0 0 0 0 0 0 0 0 0 0 0 0 0
65 60 55 54 56 53 47 42 42 43 40 34 29 24 20 19 20 19 18 17 15 12 9 7 7 5 2 0 0 0 0 0 0 0 0 0 0 0 0 0 0 0 1
63 60 58 58 59 55 46 41 40 40 37 32 29 24 20 19 20 20 18 16 14 11 8 6 6 4 1 0 0 0 0 0 0 0 0 0 0 0 0 0 0 1 2
59 61 61 62 62 55 47 42 39 36 34 30 27 23 20 19 20 20 17 14 11 9 7 5 5 3 1 0 0 0 0 0 0 0 0 0 0 0 0 0 0 1 2
57 60 62 61 58 52 48 45 38 33 29 25 22 20 19 18 17 17 15 13 9 7 5 4 3 1 0 0 0 0 0 0 0 0 0 0 0 0 0 0 0 1 1
56 58 58 55 49 46 47 44 36 29 25 21 18 17 16 15 14 14 13 12 9 5 4 3 2 1 0 0 0 0 0 0 0 0 0 0 0 0 0 0 0 0 0
53 54 52 48 43 40 39 38 34 28 24 21 18 15 14 14 13 12 12 11 7 4 3 3 2 1 0 0 0 0 0 0 0 0 0 0 0 0 0 0 0 0 0
46 46 44 41 37 33 30 31 30 27 24 21 19 17 14 13 12 11 9 8 5 3 3 3 2 1 0 0 0 0 0 0 0 0 0 0 0 0 0 0 0 0 0
40 39 38 35 31 27 26 26 26 24 23 22 21 18 15 12 11 9 7 5 3 2 3 3 1 0 0 0 0 0 0 0 0 0 0 0 0 0 0 0 0 0 0
Wind_Speed
8 8 8 7 7 7 7 7 7 6 5 4 4 3 4 3 3 3 3 3 4 3 3 3 2 4 3 3 4 4 4 4 3 3 3 4 5 4 3 3 3 4 4
9 8 8 8 8 8 7 7 7 6 6 4 3 2 2 2 3 2 2 4 4 4 3 3 4 4 3 4 5 4 4 3 3 3 3 3 3 4 3 3 3 3 3
9 9 9 8 8 7 7 6 6 6 6 5 3 3 2 3 3 3 3 3 3 3 3 3 4 4 5 4 5 5 5 4 3 3 3 3 1 1 3 2 2 3 3
9 9 9 8 8 7 7 7 6 6 5 5 4 4 3 3 2 2 2 2 3 3 4 4 4 4 4 4 5 4 4 5 4 3 3 4 3 3 1 2 3 2 2
9 9 9 8 8 7 7 6 6 5 5 4 4 4 3 2 2 2 2 2 2 3 3 4 4 4 4 4 5 4 4 4 4 3 3 3 3 5 4 2 1 2 1
9 9 8 8 8 7 7 7 6 5 5 4 4 4 3 2 2 2 2 2 1 2 3 3 4 4 4 4 4 4 4 4 4 4 3 3 3 3 3 3 3 2 1
10 10 10 10 9 8 7 7 6 5 5 4 4 4 3 3 3 2 2 2 1 1 1 2 3 3 3 4 4 4 4 4 4 4 4 3 4 3 3 3 3 2 2
10 10 10 10 9 9 8 7 6 5 4 4 3 2 2 2 1 1 2 1 1 2 2 2 2 2 2 3 3 3 3 3 4 4 4 3 3 3 3 3 3 3 3
10 11 10 10 9 9 8 7 7 6 5 4 4 3 2 1 1 1 1 1 1 1 1 1 1 1 2 2 2 2 2 2 3 3 4 3 2 3 3 3 4 4 4
10 10 10 10 9 9 8 7 7 6 5 5 4 3 3 2 1 1 0 1 1 1 1 1 1 1 1 1 2 2 1 2 2 2 2 2 3 2 3 3 3 4 3
9 10 9 9 9 9 8 8 7 6 5 5 4 3 2 2 2 1 0 0 0 1 0 0 0 1 1 1 1 1 1 1 1 1 1 2 3 2 2 2 2 2 2
9 9 10 10 10 9 8 8 7 6 6 5 5 4 3 2 2 2 1 1 1 1 1 1 1 1 1 1 1 1 0 0 0 1 1 1 1 2 2 1 2 2 2
9 9 10 9 9 8 8 7 7 6 6 6 5 4 4 3 2 2 2 2 2 1 2 2 2 2 2 2 2 2 2 2 2 2 2 2 2 2 2 2 2 1 0
9 9 9 8 8 7 7 7 6 6 6 6 6 5 4 3 3 3 2 2 2 3 3 3 3 3 3 3 3 3 3 3 4 4 4 4 4 3 2 1 1 1 1
9 9 9 9 8 8 7 7 6 6 6 6 6 5 5 4 4 4 3 3 3 4 4 4 4 4 3 4 4 4 4 4 5 5 6 7 8 9 7 4 4 2 1
9 9 9 9 9 8 8 8 7 7 7 6 6 6 6 5 5 5 5 5 5 5 5 5 5 5 5 8 8 5 5 4 5 5 6 6 8 9 10 11 10 8 4
9 9 8 8 8 8 8 8 8 8 7 7 6 7 6 6 5 5 6 5 5 5 5 5 5 6 8 8 8 7 5 5 5 5 5 5 6 6 6 8 8 9 8
8 8 7 8 8 8 9 8 9 8 8 7 7 6 6 6 6 6 5 5 5 5 5 5 6 6 7 6 6 5 5 6 6 6 6 6 6 5 4 6 7 7 7
7 7 7 8 9 9 9 9 9 9 8 7 6 6 6 7 7 6 6 5 5 5 5 5 5 6 6 6 5 3 5 5 6 6 6 5 5 6 4 5 6 6 6
6 7 7 8 9 8 9 9 9 8 7 6 6 6 5 6 7 7 6 6 5 5 5 6 5 6 6 6 6 4 3 4 4 5 6 8 7 6 6 4 5 5 5
7 8 8 8 7 8 9 9 8 7 6 7 7 7 7 7 7 7 6 6 6 6 6 6 5 5 6 6 7 7 2 3 3 4 4 6 7 7 6 4 5 3 2
7 8 8 7 7 7 8 8 7 7 7 7 7 7 7 6 7 7 6 6 6 7 6 5 5 4 5 5 5 7 7 5 4 4 5 6 6 7 6 5 4 3 3
7 7 8 8 6 5 6 7 7 7 8 8 7 7 7 6 6 7 7 6 5 4 4 4 4 4 4 5 5 5 6 6 4 6 8 6 4 4 6 6 3 2 1
7 6 7 7 6 5 5 6 7 7 8 8 8 7 7 7 6 4 4 4 4 4 4 3 4 4 4 3 4 4 5 5 5 6 7 6 3 3 4 3 2 3 4
5 6 6 6 6 5 5 6 6 7 8 8 7 7 7 6 6 4 3 2 3 2 1 2 3 3 4 3 3 1 2 2 3 3 4 4 4 3 3 3 3 3 2
5 5 5 6 6 5 5 5 6 6 8 7 7 6 6 6 6 6 5 9 7 7 7 6 3 4 6 6 4 4 4 3 0 1 3 3 3 3 3 2 2 2 2
Wind_Direction
183 181 184 187 188 190 194 202 208 198 201 203 208 205 209 214 219 231 233 247 257 253 256 267 236 247 239 250 244 243 229 232 231 244 235 223 223 225 226 234 237 228 228
179 180 184 187 190 191 195 199 203 200 201 198 208 217 234 235 229 244 238 245 249 253 242 248 253 246 246 242 248 241 258 248 225 251 257 239 203 206 210 215 227 238 230
185 182 186 189 187 189 192 192 196 198 202 199 204 207 208 231 224 232 237 245 248 248 261 261 265 261 250 238 243 238 241 248 235 243 267 272 261 229 174 197 227 229 235
184 184 182 181 183 185 182 186 188 193 191 193 207 214 219 229 235 245 250 256 246 250 252 254 259 261 260 250 244 232 240 245 246 229 243 271 305 276 231 194 185 206 236
180 181 179 175 176 176 173 174 176 180 183 192 199 217 227 230 231 230 237 256 245 246 256 259 257 249 251 252 254 251 246 239 245 246 240 246 244 249 257 252 219 207 217
174 171 168 166 168 167 168 168 168 173 177 185 193 211 221 235 250 253 262 252 240 236 249 257 255 249 249 247 246 245 238 244 248 248 245 247 250 249 248 250 242 237 215
171 167 167 166 166 167 167 163 163 169 175 179 190 202 214 220 231 250 258 280 278 265 270 271 264 263 254 249 247 240 249 243 243 246 245 250 256 266 261 254 258 263 260
166 165 166 167 167 168 168 163 162 168 170 172 181 190 203 218 220 243 286 291 304 312 321 284 271 268 266 259 248 249 248 244 245 249 258 259 258 261 260 261 260 260 259
162 164 167 168 167 167 166 164 163 162 162 165 167 162 169 200 175 170 237 272 305 299 325 314 305 299 285 273 255 246 258 255 246 246 244 248 254 257 256 250 250 255 260
158 161 165 166 165 163 159 162 162 162 162 163 167 153 160 168 176 193 22 5 346 338 328 333 314 307 306 294 277 259 251 243 250 260 271 268 264 268 261 259 262 262 263
157 158 161 161 160 158 157 160 161 162 161 157 155 151 151 155 157 151 124 67 18 4 356 324 334 343 346 334 313 296 271 244 266 272 260 269 288 292 284 269 262 259 241
153 154 155 157 159 159 160 162 162 162 160 154 151 149 145 139 136 115 98 89 73 38 23 20 38 23 26 21 15 336 25 301 8 358 351 324 316 318 318 310 285 273 247
153 153 155 159 161 162 161 158 162 160 156 151 151 146 139 132 125 112 104 90 78 64 62 55 47 39 44 50 47 45 47 48 43 37 26 3 350 347 352 334 326 319 210
154 156 157 159 156 156 155 157 161 156 154 153 150 142 133 124 119 111 106 95 86 81 72 64 58 57 57 60 63 69 66 60 50 43 38 25 15 5 4 24 26 35 93
157 158 161 155 156 154 155 155 154 152 151 152 148 141 133 122 118 114 108 103 94 87 81 76 68 59 58 52 58 75 75 69 63 57 55 53 52 45 34 34 37 39 46
164 162 161 159 159 157 156 153 152 151 153 151 145 138 132 129 125 111 98 91 86 80 79 77 73 65 58 50 45 48 75 71 68 67 65 71 70 71 68 60 53 43 41
168 165 164 161 159 158 154 152 148 146 146 146 145 140 139 133 124 117 112 107 100 94 86 82 82 78 66 53 53 50 71 75 70 67 63 65 68 69 79 88 87 69 54
167 163 160 155 154 151 148 145 142 142 144 146 146 143 142 132 124 121 115 111 109 102 94 89 89 89 76 57 56 57 83 81 76 72 68 69 65 53 55 80 79 72 59
161 157 154 147 145 145 144 146 145 144 146 147 145 145 144 135 130 127 124 119 116 110 106 98 96 93 82 52 37 27 93 89 81 73 64 62 72 39 23 82 86 82 84
142 144 139 134 136 141 145 147 146 147 149 146 139 137 137 134 133 130 128 124 123 118 111 97 89 87 84 55 26 357 99 98 97 90 82 64 55 34 17 72 83 84 76
135 136 132 130 134 140 146 148 147 148 145 137 134 134 135 135 132 129 129 129 127 118 109 102 92 84 81 75 43 14 47 87 95 94 88 75 57 48 35 42 68 53 32
130 131 126 123 128 141 148 147 146 143 139 139 139 137 139 137 134 133 134 137 137 134 128 120 112 100 90 73 63 44 39 36 87 84 86 86 75 66 51 57 44 341 303
127 127 125 123 124 133 144 144 141 143 143 142 140 139 138 134 138 142 145 148 151 149 141 141 131 118 111 105 94 77 62 48 75 81 77 89 102 117 93 70 22 332 50
130 129 128 125 125 129 131 136 142 146 147 145 144 145 143 139 133 138 146 148 149 151 147 143 138 133 131 129 133 131 128 129 119 113 119 127 105 94 90 110 85 56 43
120 124 128 129 126 126 128 134 139 148 148 145 146 147 144 139 135 124 90 114 91 64 119 135 145 150 143 95 47 71 109 106 107 133 139 132 125 112 96 89 75 68 74
121 125 128 127 128 132 131 133 141 150 151 149 153 151 147 146 144 137 116 57 67 72 60 45 54 90 88 109 102 82 72 74 122 196 129 121 116 108 99 95 95 85 65